Ketchikan, AK

11:27 PM AKST on December 15, 2018 (GMT -0900)
Ketchikan International

Weather History for PAKT - September, 2018

Change the Weather History Date:

Wednesday, September 5, 2018

  Actual Average Record
Temperature  
Mean Temperature 58 °F -  
Max Temperature 63 °F 60 °F 80 °F (2017)
Min Temperature 53 °F 48 °F 37 °F (1998)
Degree Days  
Heating Degree Days 8    
Growing Degree Days 8 (Base 50)    
Moisture  
Dew Point 53 °F    
Average Humidity 91    
Maximum Humidity 96    
Minimum Humidity 72    
Precipitation  
Precipitation 0.20 in - - ()
Sea Level Pressure  
Sea Level Pressure 30.11 in    
Wind  
Wind Speed 2 mph (NW)    
Max Wind Speed 7 mph    
Max Gust Speed -    
Visibility 8 miles    
Events Rain    
Averages and records for this station are not official NWS values.
T = Trace of Precipitation, MM = Missing Value Source: NWS Daily Summary

Daily Weather History Graph

Daily Weather History Graph

Search for Another Location

Airport or City:

Astronomy

Sep. 05, 2018 Rise Set
Actual Time 6:00 AM AKDT 7:29 PM AKDT
Civil Twilight 5:22 AM AKDT 8:07 PM AKDT
Nautical Twilight 4:35 AM AKDT 8:53 PM AKDT
Astronomical Twilight 3:41 AM AKDT 9:46 PM AKDT
Moon 12:28 AM AKDT (9/5) 5:32 PM AKDT (9/5)
Length of Visible Light 14h 44m
Length of Day
13h 28m
Waning Crescent, 21% of the Moon is Illuminated
Sep 5
Waning Crescent
Sep 9
New
Sep 16
First Quarter
Sep 24
Full
Oct 2
Last Quarter

Hourly Weather History & Observations

Time (AKDT) Temp. Dew Point Humidity Pressure Visibility Wind Dir Wind Speed Gust Speed Precip Events Conditions
12:53 AM 54.0 °F 52.0 °F 93% 30.15 in 7.0 mi Calm Calm - 0.04 in Rain Light Rain
1:37 AM 54.0 °F 52.0 °F 93% 30.14 in 7.0 mi Calm Calm - 0.02 in Rain Light Rain
1:53 AM 54.0 °F 52.0 °F 93% 30.14 in 9.0 mi Calm Calm - 0.02 in Rain Light Rain
2:53 AM 54.0 °F 52.0 °F 93% 30.13 in 8.0 mi Calm Calm - 0.02 in Rain Light Rain
3:50 AM 53.6 °F 51.8 °F 94% 30.13 in 10.0 mi Calm Calm - 0.01 in Rain Light Rain
3:53 AM 54.0 °F 52.0 °F 93% 30.13 in 10.0 mi Calm Calm - 0.01 in Rain Light Rain
4:23 AM 53.1 °F 52.0 °F 96% 30.12 in 10.0 mi Calm Calm - 0.01 in Rain Light Rain
4:53 AM 54.0 °F 52.0 °F 93% 30.12 in 6.0 mi Calm Calm - 0.03 in Rain Light Rain
5:53 AM 53.1 °F 52.0 °F 96% 30.12 in 6.0 mi Calm Calm - 0.03 in Rain Light Rain
6:06 AM 53.6 °F 51.8 °F 94% 30.12 in 6.0 mi Calm Calm - N/A Rain Light Rain
6:53 AM 53.6 °F 51.8 °F 94% 30.12 in 9.0 mi Calm Calm - N/A Rain Light Rain
7:27 AM 54.0 °F 52.0 °F 93% 30.12 in 7.0 mi Calm Calm - 0.01 in Rain Light Rain
7:53 AM 53.6 °F 51.8 °F 94% 30.12 in 8.0 mi NNW 3.5 mph - N/A Rain Light Rain
8:53 AM 55.4 °F 53.6 °F 94% 30.12 in 10.0 mi North 4.6 mph - N/A Rain Light Rain
9:53 AM 55.0 °F 53.1 °F 93% 30.12 in 3.0 mi NW 3.5 mph - 0.05 in Rain Light Rain
10:53 AM 55.4 °F 53.6 °F 94% 30.12 in 4.0 mi NNW 4.6 mph - N/A Rain Light Rain
11:53 AM 55.4 °F 53.6 °F 94% 30.12 in 5.0 mi Calm Calm - N/A Rain Light Rain
12:53 PM 57.2 °F 55.4 °F 94% 30.12 in 4.0 mi NNW 4.6 mph - N/A Rain Light Rain
1:53 PM 57.2 °F 55.4 °F 94% 30.12 in 10.0 mi WNW 5.8 mph - N/A   Overcast
2:53 PM 59.0 °F 53.6 °F 82% 30.11 in 10.0 mi WNW 5.8 mph - N/A   Overcast
3:53 PM 60.8 °F 53.6 °F 77% 30.10 in 10.0 mi NW 5.8 mph - N/A   Overcast
4:53 PM 62.6 °F 53.6 °F 72% 30.08 in 10.0 mi North 3.5 mph - N/A   Scattered Clouds
5:53 PM 60.8 °F 55.4 °F 82% 30.07 in 10.0 mi NNW 6.9 mph - N/A   Scattered Clouds
6:53 PM 59.0 °F 55.4 °F 88% 30.07 in 10.0 mi NNW 5.8 mph - N/A   Scattered Clouds
7:53 PM 57.2 °F 53.6 °F 88% 30.07 in 10.0 mi NNW 6.9 mph - N/A   Scattered Clouds
8:53 PM 55.9 °F 54.0 °F 93% 30.08 in 10.0 mi NW 4.6 mph - N/A   Partly Cloudy
9:53 PM 55.0 °F 53.1 °F 93% 30.08 in 10.0 mi WNW 4.6 mph - N/A   Partly Cloudy
10:53 PM 54.0 °F 52.0 °F 93% 30.08 in 10.0 mi NW 4.6 mph - N/A   Clear
11:53 PM 53.1 °F 52.0 °F 96% 30.07 in 10.0 mi NW 6.9 mph - N/A   Clear